Driggs, ID

11:03 AM MST on December 14, 2017 (GMT -0700)
Driggs

Weather History for KDIJ - December, 2012

Change the Weather History Date:

Sunday, December 9, 2012

  Actual Average (KJAC) Record (KJAC)
Temperature  
Mean Temperature 12 °F -  
Max Temperature 19 °F 25 °F 46 °F (2015)
Min Temperature 6 °F 3 °F -28 °F (1972)
Degree Days  
Heating Degree Days 52    
Moisture  
Dew Point 4 °F    
Average Humidity 66    
Maximum Humidity 84    
Minimum Humidity 50    
Precipitation  
Precipitation 0.00 in - - ()
Sea Level Pressure  
Sea Level Pressure 30.29 in    
Wind  
Wind Speed 3 mph (South)    
Max Wind Speed 9 mph    
Max Gust Speed -    
Visibility 10 miles    
Events      
Averages and records for this station are not official NWS values.
T = Trace of Precipitation, MM = Missing Value Source: NWS Daily Summary

Daily Weather History Graph

Daily Weather History Graph

Search for Another Location

Airport or City:

Trip Planner

Search our weather history database for the weather conditions in past years. The results will help you decide how hot, cold, wet, or windy it might be!

Date:

Astronomy

Dec. 09, 2012 Rise Set
Actual Time 7:46 AM MST 4:47 PM MST
Civil Twilight 7:14 AM MST 5:19 PM MST
Nautical Twilight 6:37 AM MST 5:56 PM MST
Astronomical Twilight 6:03 AM MST 6:30 PM MST
Moon 3:17 AM MST (12/9) 2:01 PM MST (12/9)
Length of Visible Light 10h 05m
Length of Day
9h 00m
Waning Crescent, 18% of the Moon is Illuminated
Dec 9
Waning Crescent
Dec 13
New
Dec 19
First Quarter
Dec 28
Full
Jan 4
Last Quarter

Hourly Weather History & Observations

Time (MST) Temp. Windchill Dew Point Humidity Pressure Visibility Wind Dir Wind Speed Gust Speed Precip Events Conditions
12:56 AM 10.0 °F - 3.0 °F 73% 30.15 in 10.0 mi Calm Calm - N/A   Clear
1:56 AM 11.1 °F - 4.1 °F 73% 30.14 in 10.0 mi Calm Calm - N/A   Mostly Cloudy
2:56 AM 12.0 °F 4.1 °F 4.1 °F 71% 30.16 in 10.0 mi ESE 4.6 mph - N/A   Mostly Cloudy
3:56 AM 10.0 °F - 6.1 °F 84% 30.18 in 10.0 mi Calm Calm - N/A   Mostly Cloudy
4:56 AM 10.0 °F - 5.0 °F 80% 30.22 in 10.0 mi Calm Calm - N/A   Scattered Clouds
5:56 AM 9.1 °F - 4.1 °F 80% 30.26 in 10.0 mi Calm Calm - N/A   Clear
6:56 AM 6.1 °F -0.9 °F 1.0 °F 80% 30.31 in 10.0 mi ESE 3.5 mph - N/A   Mostly Cloudy
7:56 AM 7.2 °F -1.5 °F 2.1 °F 80% 30.34 in 10.0 mi SE 4.6 mph - N/A   Overcast
8:56 AM 8.1 °F -0.5 °F 2.1 °F 77% 30.36 in 10.0 mi South 4.6 mph - N/A   Partly Cloudy
9:56 AM 12.0 °F 4.1 °F 5.0 °F 73% 30.38 in 10.0 mi South 4.6 mph - N/A   Clear
10:56 AM 15.1 °F - 4.1 °F 62% 30.38 in 10.0 mi Calm Calm - N/A   Clear
11:56 AM 17.1 °F 11.7 °F 4.1 °F 57% 30.32 in 10.0 mi South 3.5 mph - N/A   Clear
12:56 PM 18.1 °F 12.9 °F 2.1 °F 50% 30.31 in 10.0 mi West 3.5 mph - N/A   Clear
1:56 PM 19.0 °F 13.9 °F 4.1 °F 52% 30.30 in 10.0 mi NW 3.5 mph - N/A   Scattered Clouds
2:56 PM 19.0 °F - 3.0 °F 50% 30.29 in 10.0 mi Calm Calm - 0.00 in   Clear
3:56 PM 19.0 °F - 3.0 °F 50% 30.32 in 10.0 mi Calm Calm - N/A   Mostly Cloudy
4:56 PM 15.1 °F 4.2 °F 3.0 °F 59% 30.33 in 10.0 mi SW 8.1 mph - N/A   Mostly Cloudy
5:56 PM 16.2 °F 9.0 °F 2.1 °F 54% 30.34 in 10.0 mi South 4.6 mph - N/A   Overcast
7:56 PM 16.2 °F 4.7 °F 3.0 °F 56% 30.34 in 10.0 mi SSE 9.2 mph - N/A   Overcast
9:56 PM 16.2 °F 4.7 °F 6.1 °F 65% 30.31 in 10.0 mi SSE 9.2 mph - N/A   Overcast
10:56 PM 17.1 °F 5.8 °F 7.2 °F 65% 30.29 in 10.0 mi SSE 9.2 mph - N/A   Overcast
11:56 PM 17.1 °F 5.8 °F 6.1 °F 62% 30.25 in 10.0 mi South 9.2 mph - N/A   Overcast